Location: Silverdale
(47.6506°N, 122.6941°W)
Time: 05:11:26
(UTC+00:00)

Altair - Pass Details

Date: 04 October 2022
Orbit: 1501 x 1682 km, 47.2° (Epoch: 04 December)

Event Time Altitude Azimuth Distance (km) Brightness Sun altitude
Rises 20:13:36 0° 290° (WNW) 4,921 10.0 37.7°
Reaches altitude 10° 20:17:34 10° 278° (W) 3,942 9.7 37.6°
Maximum altitude 20:24:58 24° 230° (SW) 2,988 10.0 37.5°
Drops below altitude 10° 20:32:22 10° 182° (S) 3,920 10.9 37.3°
Sets 20:36:19 0° 170° (S) 4,888 11.0 37.1°
